Starlink 32751

operational
NORAD ID: 62753 Int'l Des: 2025-014 Owner: SPXS Country: US Constellation: starlink
LEOCIRCULAR

About Starlink 32751

Description loading...

Live Position

Loading 3D Globe...

Upcoming Passes

Altitude History

Altitude vs Time

uPlot chart will show altitude changes over time

Two-Line Element Set

1 62753U 25014U 25304.61628951 .00038915 00000-0 14145-2 0 9990
2 62753 43.0005 163.6390 0001642 276.9682 83.0983 15.27618555 43517
Epoch: Oct 31, 2025 • Age: 9 hours

Current Status

Altitude 484.9 km
Velocity 7.62 km/s
Sub-Earth Point -13.81°S, 103.94°E
Launch Date Jan 21, 2025
Age 0.7 years
Type internet

Technical Details

Classification Payload
Mass 730.00 kg
Dry Mass 700.00 kg
Total Mass 730.00 kg
Length 0.30 m
Diameter 4.10 m
Span 29.00 m
Shape Box + pan
Manufacturer SPXS
Bus Type Starlink V2M
Phase Status In Orbit
Owner/State SPXS/US

Large Constellations

Loading constellations...